Miscellaneous Local Product
Issued by NWS North Platte, NE

Home | Current Version | Previous Version | Text Only | Print | Product List | Glossary On
Versions: 1 2 3 4 5 6 7 8 9 10 11 12 13 14 15 16 17 18 19 20 21 22 23 24 25 26 27 28 29 30 31 32 33 34 35 36 37 38 39 40 41 42 43 44 45 46 47 48 49 50
479
AXUS43 KLBF 070010
MISLBF


WESTERN AND NORTH CENTRAL NEBRASKA HOURLY WEATHER ROUNDUP
NATIONAL WEATHER SERVICE NORTH PLATTE NE
600 PM CST SAT FEB 06 2016

NOTE: "FAIR" INDICATES FEW OR NO CLOUDS BELOW 12,000 FEET WITH NO
SIGNIFICANT WEATHER AND/OR OBSTRUCTIONS TO VISIBILITY.

NOTE: STATIONS NOT REPORTING VARIABLES SUCH AS SKY/WEATHER OR
PRESSURE ARE PROVIDED BY THE NEBRASKA DEPARTMENT OF
ROADS...RAWS...AND APRS NETWORKS...AND ARE NOT UNDER
NATIONAL WEATHER SERVICE QUALITY CONTROL.

...OBSERVATIONS IN AND NEAR THE EASTERN PANHANDLE OF NEBRASKA...

CITY           SKY/WX    TMP DP  RH WIND       PRES   REMARKS
PINE RIDGE     CLOUDY    44  25  47 W16G28    29.91S
CHADRON        CLOUDY    41  27  57 W3        29.97R
ALLIANCE       CLOUDY    37  27  67 W21       29.94S WCI  26
SIDNEY         CLEAR     39  29  67 W18       30.01S WCI  30
$$

...OBSERVATIONS IN NORTH CENTRAL NEBRASKA...

CITY           SKY/WX    TMP DP  RH WIND       PRES   REMARKS
VALENTINE      CLOUDY    41  28  60 W13       29.88F
THEDFORD       CLOUDY    40  30  68 W7        29.93S WCI  35
AINSWORTH      CLOUDY    40  29  65 SW8       29.87F WCI  34
O`NEILL        PTCLDY    39  31  73 SW10      29.89F WCI  32
ORD            CLOUDY    37  28  70 SW16      29.94S WCI  28
BROKEN BOW     CLOUDY    38  27  64 W13       29.96R WCI  30
VALENTINE NWR    N/A     43  26  50 W10         N/A
BUTTE            N/A     42  32  67 SW8         N/A
HALSEY           N/A     43  28  54 W6G13       N/A
CHAMBERS         N/A     39  28  65 SW6         N/A  WCI  35
EWING            N/A     37  31  80 SW7         N/A  WCI  31
$$

...OBSERVATIONS IN SOUTHWEST NEBRASKA AND FAR NORTHEAST COLORADO...

CITY           SKY/WX    TMP DP  RH WIND       PRES   REMARKS
WRAY           FAIR      40  28  62 SW12      30.05F WCI  33
HOLYOKE        FAIR      36  27  69 W10       30.03F WCI  28
IMPERIAL       CLOUDY    36  26  67 SW10      30.02F WCI  28
OGALLALA       CLOUDY    31  22  71 W13       30.00F WCI  21
NORTH PLATTE   CLOUDY    38  25  59 W12       29.98F WCI  30
MCCOOK         CLOUDY    39  27  62 SW13      30.04F WCI  31
LEXINGTON      CLOUDY    38  26  61 SW14      29.99F WCI  29
PAXTON           N/A     35  29  80 W3          N/A
STAPLETON        N/A     35  28  76 CALM        N/A
GOTHENBURG       N/A     41  25  53 SW7         N/A
CALLAWAY         N/A     37  29  72 SW16        N/A  WCI  27
$$

...OBSERVATIONS IN CENTRAL LINCOLN COUNTY AREA...

CITY           SKY/WX    TMP DP  RH WIND       PRES   REMARKS
N.P. AIRPORT   CLOUDY    38  25  59 W12       29.98F WCI  30
N.P. DOWNTOWN    N/A     37  28  71 SW3         N/A
N.P. SOUTHEAST   N/A     38  28  67 W5          N/A  WCI  34
N.P. HILLCREST   N/A     36  29  74 W8G15       N/A  WCI  30
$$

...SOME OBSERVATIONS FROM AROUND THE REGION...

CITY           SKY/WX    TMP DP  RH WIND       PRES   REMARKS
DENVER         MOCLDY    46  20  35 W16       30.08S
LARAMIE        CLOUDY    34  16  47 W26       30.13S WCI  21
CHEYENNE       CLOUDY    43  17  35 NW16G23   30.07S
SCOTTSBLUFF    CLOUDY    40  25  55 W22G30    30.00F WCI  30
RAPID CITY     CLOUDY    42  29  59 N29G46    29.91R
BISMARCK       PTCLDY    50  24  36 W12       29.70R
PIERRE         PTCLDY    46  29  51 W14       29.81R
WINNER         FAIR      42  28  57 SW8       29.84R
SIOUX FALLS    CLOUDY    34  26  72 SW10      29.86F WCI  26
OMAHA          CLOUDY    39  27  62 S15       30.02F WCI  31
GRAND ISLAND   CLOUDY    34  24  67 SW20      29.99F WCI  23
KANSAS CITY    PTCLDY    41  29  62 SW9       30.16F
WICHITA        PTCLDY    44  26  49 S12       30.20F
OKLAHOMA CITY  PTCLDY    47  26  44 SW5       30.27F
LIBERAL        CLEAR     48  12  23 S9        30.16F
HAYS           CLOUDY    39  25  56 SW6       30.13F WCI  35
GOODLAND       CLOUDY    39  26  59 SW15      30.08F WCI  31
$$




USA.gov is the U.S. government's official web portal to all federal, state and local government web resources and services.